Hurricane Symbol View the latest observations near Atlantic Tropical Storm Alberto.

Station SISW1 - Smith Island, WA Image indicating link to RSS feed of recent meteorological observations for station SISW1


Conditions at SISW1 as of
(1:40 pm PDT)
2040 GMT on 06/19/2024:
     

Click on the graph icon in the table below to see a time series plot of the last five days of that observation.

5-day plot - Wind Speed Wind Speed (WSPD): 0 kts
5-day plot - Wind Gust Wind Gust (GST): 4 kts
5-day plot - Atmospheric Pressure Atmospheric Pressure (PRES):30.02 in
5-day plot - Air Temperature Air Temperature (ATMP): 59.0 °F
5-day plot - Dew Point Dew Point (DEWP): 56.1 °F
5-day plot - Wind Speed at 10 Meters Wind Speed at 10 meters (WSPD10M): 2 kts
5-day plot - Wind Speed at 20 Meters Wind Speed at 20 meters (WSPD20M): 2 kts
5-day plot -  Wind Speed, Wind Gust and Atmospheric Pressure Combined plot of Wind Speed, Gust, and Air Pressure
Supplemental Measurements
Highest 1-minute Wind Speed
Time (PDT)5-day plot - 1-Minute Wind Speed WSPD 5-day plot - 1-Minute Wind Direction WDIR
1:39 pm 4 kts-
Previous observations
TIME
(PDT)
5-day plot - Wind Direction
WDIR
 
5-day plot - Wind Speed
WSPD
kts
5-day plot - Wind Gust
GST
kts
5-day plot - Wave Height
WVHT
ft
5-day plot - Dominant Wave Period
DPD
sec
5-day plot - Average Wave Period
APD
sec
5-day plot - Mean Wave Direction
MWD
 
5-day plot - Atmospheric Pressure
PRES
in
5-day plot - Pressure Tendency
PTDY
in
5-day plot - Air Temperature
ATMP
°F
5-day plot - Water Temperature
WTMP
°F
5-day plot - Dew Point
DEWP
°F
5-day plot - Salinity
SAL
psu
5-day plot - Visibility
VIS
nmi
5-day plot - Tide (above MLLW)
TIDE
ft
2024-06-19 01:30 pm- 0 0----30.03- 57.9- 56.1---
2024-06-19 01:20 pm- 0 0----30.03- 57.0- 55.9---
2024-06-19 01:10 pm- 0 0----30.03- 56.7- 55.8---
2024-06-19 01:00 pm- 0 0----30.03-0.02 56.3- 55.8---
2024-06-19 12:50 pm- 0 0----30.03- 56.3- 55.8---
2024-06-19 12:40 pm- 0 0----30.03- 56.1- 55.6---
2024-06-19 12:30 pm- 0 0----30.03- 55.9- 55.6---
2024-06-19 12:20 pm- 0 0----30.03- 55.6- 55.6---
2024-06-19 12:10 pm- 0 0----30.03- 55.2- 55.0---
2024-06-19 12:00 pm- 0 3----30.03-0.01 55.6- 55.2---
2024-06-19 11:50 am- 0 3------------
2024-06-19 11:40 amWSW 1 3----30.04- 54.9- 54.9---
2024-06-19 11:30 amWNW 3 5----30.04- 55.0- 54.5---
2024-06-19 11:20 am NW 5 5----30.04- 55.2- 53.4---
2024-06-19 11:10 am NW 4 5----30.04- 55.0- 52.3---
2024-06-19 11:00 am NW 4 5----30.04+0.00 54.5- 52.3---
2024-06-19 10:50 am NW 5 5----30.05- 53.2- 52.9---
2024-06-19 10:40 am NW 5 5----30.05- 52.7-----
2024-06-19 10:30 am NW 5 5----30.05- 52.7-----
2024-06-19 10:20 amNNW 4 5----30.05- 52.5-----
2024-06-19 10:10 amNNW 4 5----30.05- 52.5-----
2024-06-19 10:00 amNNW 5 5----30.05+0.01 52.3-----
2024-06-19 09:50 amNNW 5 5----30.05- 52.3-----
2024-06-19 09:40 amNNW 5 5----30.05- 52.2-----
2024-06-19 09:30 amNNW 5 5----30.05- 52.2-----
2024-06-19 09:20 amNNW 5 5----30.05- 52.2-----
2024-06-19 09:10 amNNW 4 5----30.05- 52.0-----
2024-06-19 09:00 amNNW 5 6----30.05+0.02 51.8-----
2024-06-19 08:50 amNNW 5 6----30.05- 51.8-----
2024-06-19 08:40 amNNW 6 7----30.05- 51.8-----
2024-06-19 08:30 amNNW 6 7----30.04- 52.2-----
2024-06-19 08:20 amNNW 5 5----30.05- 52.2-----
2024-06-19 08:10 am NW 3 5----30.05- 52.3-----
2024-06-19 08:00 amWNW 1 2----30.04+0.02 52.7-----
2024-06-19 07:50 am- 0 1----30.04- 52.7-----
2024-06-19 07:40 amWSW 2 3----30.04- 52.5-----
2024-06-19 07:30 am SW 3 3----30.04- 52.2-----
2024-06-19 07:20 am SW 3 3----30.04- 52.2-----
2024-06-19 07:10 amSSW 3 3----30.04- 52.2-----
2024-06-19 07:00 am SW 2 3----30.04+0.02 52.3-----
2024-06-19 06:50 am- 0 0----30.03- 52.3-----
2024-06-19 06:40 am- 0 0----30.03- 52.5-----
2024-06-19 06:30 am- 0 0----30.03- 52.7-----
2024-06-19 06:20 am- 0 0----30.03- 53.1-----
2024-06-19 06:10 am- 0 0----30.03- 52.5-----
2024-06-19 06:00 am- 0 2----30.03+0.01 51.6-----
2024-06-19 05:50 amWNW 2 2----30.03- 51.6-----
2024-06-19 05:40 am NW 2 2----30.03- 51.4-----
2024-06-19 05:30 am NW 2 3----30.02- 51.4-----
2024-06-19 05:20 amWNW 3 4----30.02- 51.4-----
2024-06-19 05:10 am W 4 4----30.02- 51.4-----
2024-06-19 05:00 am W 4 4----30.02+0.00 51.4-----
2024-06-19 04:50 am W 4 5----30.02- 51.4-----
2024-06-19 04:40 am W 4 5----30.02- 51.6-----
2024-06-19 04:30 am W 3 4----30.01- 51.6-----
2024-06-19 04:20 amWNW 3 3----30.01- 51.6-----
2024-06-19 04:10 am W 3 4----30.01- 51.6-----
2024-06-19 04:00 amWNW 2 4----30.01+0.00 51.6-----
2024-06-19 03:50 am W 3 5----30.01- 51.8-----
2024-06-19 03:40 am W 4 5----30.01- 51.8-----
2024-06-19 03:30 am W 5 5----30.01- 51.8-----
2024-06-19 03:20 amWNW 4 5----30.01- 51.8-----
2024-06-19 03:10 am W 4 5----30.01- 52.0-----
2024-06-19 03:00 am W 4 5----30.01-0.01 52.0-----
2024-06-19 02:50 amWNW 4 5----30.02- 52.2-----
2024-06-19 02:40 amWNW 4 5----30.02- 52.2-----
2024-06-19 02:30 am W 3 5----30.02- 52.3-----
2024-06-19 02:20 am W 2 5----30.02- 52.3-----
2024-06-19 02:10 amWNW 1 3----30.02- 52.3-----
2024-06-19 02:00 am NW 2 3----30.02-0.01 52.3-----
2024-06-19 01:50 amNNW 4 6----30.02- 52.3-----
2024-06-19 01:40 am NW 6 8----30.02- 52.3-----
2024-06-19 01:30 am NW 7 12----30.02- 52.5-----
2024-06-19 01:20 am W 10 12----30.01- 52.7-----
2024-06-19 01:10 am W 10 14----30.01- 52.7-----
2024-06-19 01:00 am W 10 12----30.01-0.01 52.7-----
2024-06-19 12:50 am W 11 14----30.02- 52.9-----
2024-06-19 12:40 am W 12 15----30.02- 52.9-----
2024-06-19 12:30 am W 12 15----30.02- 52.7-----
2024-06-19 12:20 am W 12 15----30.02- 52.7-----
2024-06-19 12:10 am W 13 16----30.03- 52.7-----
2024-06-19 12:00 am W 13 16----30.03+0.01 52.7-----
2024-06-18 11:50 pm W 13 16----30.03- 52.9- 52.9---
2024-06-18 11:40 pm W 13 16----30.03- 52.9- 52.9---
2024-06-18 11:30 pm W 12 16----30.03- 53.1- 53.1---
2024-06-18 11:20 pm W 12 15----30.03- 53.1- 52.9---
2024-06-18 11:10 pm W 12 16----30.03- 53.1- 52.9---
2024-06-18 11:00 pm W 13 16----30.03+0.01 53.1- 53.1---
2024-06-18 10:50 pm W 13 16----30.03- 53.1- 52.9---
2024-06-18 10:40 pm W 14 17----30.03- 53.1- 52.7---
2024-06-18 10:30 pm W 15 18----30.03- 53.2- 52.7---
2024-06-18 10:20 pm W 14 17----30.03- 53.2- 53.1---
2024-06-18 10:10 pm W 13 16----30.03- 53.2- 53.1---
2024-06-18 10:00 pm W 13 16----30.03+0.01 53.2- 53.1---
2024-06-18 09:50 pm W 12 16----30.03- 53.4- 53.2---
2024-06-18 09:40 pm W 12 15----30.02- 53.4- 53.2---
2024-06-18 09:30 pm W 11 13----30.03- 53.4- 53.2---
2024-06-18 09:20 pm W 10 12----30.02- 53.6- 53.2---
2024-06-18 09:10 pm W 9 12----30.02- 53.6- 53.2---
2024-06-18 09:00 pm W 10 13----30.02+0.00 53.6- 53.4---
2024-06-18 08:50 pm W 11 13----30.02- 54.0- 53.6---
2024-06-18 08:40 pm W 10 12----30.02- 54.1- 53.4---
2024-06-18 08:30 pm W 10 13----30.02- 54.1- 53.4---
2024-06-18 08:20 pm W 11 12----30.02- 54.1- 53.4---
2024-06-18 08:10 pm W 11 14----30.02- 54.3- 53.6---
2024-06-18 08:00 pm W 10 13----30.02-0.01 54.7- 53.8---
2024-06-18 07:50 pm W 10 13----30.02- 54.9- 53.8---
2024-06-18 07:40 pm W 10 12----30.02- 55.2- 53.6---
2024-06-18 07:30 pm W 10 12----30.02- 55.2- 53.4---
2024-06-18 07:20 pm W 10 13----30.02- 55.4- 53.6---
2024-06-18 07:10 pm W 10 12----30.02- 55.4- 53.4---
2024-06-18 07:00 pm W 10 12----30.02-0.03 55.4- 53.4---
2024-06-18 06:50 pm W 10 13----30.02- 55.6- 53.6---
2024-06-18 06:40 pm W 11 13----30.02- 55.4- 53.6---
2024-06-18 06:30 pm W 11 14----30.02- 55.0- 53.8---
2024-06-18 06:20 pm W 11 13----30.01- 55.2- 53.8---
2024-06-18 06:10 pm W 10 12----30.02- 55.2- 53.6---
2024-06-18 06:00 pmWNW 10 12----30.02-0.04 55.4- 54.0---
2024-06-18 05:50 pm W 9 11----30.02- 55.9- 53.8---
2024-06-18 05:40 pm W 9 10----30.02- 55.9- 54.0---
2024-06-18 05:30 pm W 9 12----30.03- 56.1- 54.7---
2024-06-18 05:20 pm W 8 11----30.03- 57.2- 52.5---
2024-06-18 05:10 pm W 7 8----30.03- 57.7- 52.0---
2024-06-18 05:00 pm W 6 7----30.03-0.04 57.6- 51.6---
2024-06-18 04:50 pmWNW 6 7----30.03- 56.8- 52.2---
2024-06-18 04:40 pmWNW 5 6----30.03- 57.0- 51.6---
2024-06-18 04:30 pmWNW 6 7----30.04- 56.1- 51.8---
2024-06-18 04:20 pmWNW 7 7----30.04- 55.8- 51.1---
2024-06-18 04:10 pm NW 7 8----30.04- 54.9- 53.4---
2024-06-18 04:00 pm NW 7 8----30.05-0.03 54.9- 53.8---
2024-06-18 03:50 pm NW 8 8------------
2024-06-18 03:40 pm NW 7 7----30.05- 54.9- 53.4---
2024-06-18 03:30 pm NW 7 8----30.06- 54.9- 53.4---
2024-06-18 03:20 pm NW 8 8----30.06- 55.2- 52.9---
2024-06-18 03:10 pm NW 8 9----30.06- 55.4- 52.7---
2024-06-18 03:00 pm NW 8 8----30.06-0.03 55.2- 52.5---
2024-06-18 02:50 pm NW 8 8----30.06- 55.2- 52.5---
2024-06-18 02:40 pm NW 7 7----30.06- 54.9- 52.5---
2024-06-18 02:20 pm NW 6 7------------
2024-06-18 02:10 pm NW 7 8----30.07- 55.4- 50.7---
2024-06-18 02:00 pm NW 7 8----30.07-0.03 55.4- 50.0---
2024-06-18 01:50 pm NW 7 8----30.07- 54.7- 51.1---